Regional Weather Roundup
Issued by NWS

Home | Current Version | Previous Version | Graphics & Text | Print | Product List | Glossary On
Versions: 1 2 3 4 5 6 7 8 9 10 11 12 13 14 15 16 17 18 19 20 21 22 23 24 25 26 27 28 29 30 31 32 33 34 35 36 37 38 39 40 41 42 43 44 45 46 47 48 49 50
000
ASUS43 KMPX 160910
RWRMN
WEATHER ROUNDUP FOR MINNESOTA
NATIONAL WEATHER SERVICE TWIN CITIES/CHANHASSEN MN
300 AM CST MON JAN 16 2017


NOTE: "FAIR" INDICATES FEW OR NO CLOUDS BELOW 12,000 FEET WITH NO
SIGNIFICANT WEATHER AND/OR OBSTRUCTIONS TO VISIBILITY. N/A MEANS
CURRENT SKY AND/OR WEATHER CONDITIONS ARE NOT AVAILABLE.

MNZ060>063-068>070-161000-
   Twin Cities Metro

CITY           SKY/WX    TMP DP  RH WIND       PRES   REMARKS
TWIN CITIES    CLOUDY    17  13  84 SE5       30.20S WCI  10
ST PAUL        PTCLDY    13  12  96 SE3       30.22S FOG
CRYSTAL        CLOUDY    12   9  87 CALM      30.18S FOG
BLAINE         CLOUDY    16  16 100 S3        30.18S FOG
LAKEVILLE      CLOUDY    12  12 100 CALM      30.19S
EDEN PRAIRIE   CLOUDY    21  15  78 CALM      30.18S
SOUTH ST PAUL  CLOUDY    17  14  89 CALM      30.20S
LAKE ELMO      FAIR      12  10  92 CALM      30.21S
$$
MNZ001>005-007-008-013>017-022>024-027-028-161000-
   Northwest Minnesota

CITY           SKY/WX    TMP DP  RH WIND       PRES   REMARKS
BEMIDJI        CLOUDY    15  13  92 S7        30.05F WCI   5
HALLOCK        CLOUDY     3   0  85 S13       30.03S WCI -14
ROSEAU         CLOUDY    10   5  79 S3        30.03S
WARROAD        CLOUDY    14   9  79 SW9       30.02S WCI   2
THIEF RVR FALL CLOUDY     9   5  84 S10       30.05S WCI  -5
CROOKSTON      CLOUDY     9   7  92 S10       30.08S WCI  -6
FOSSTON        CLEAR     14  10  85 S16       30.06S WCI  -2
DETROIT LAKES  CLOUDY    19  18  93 S3        30.09S
MOORHEAD       CLOUDY     9   7  92 SE7       30.10F WCI  -3
PARK RAPIDS    CLOUDY     9   3  77 NE3       30.08S HAZE
MAHNOMEN       FAIR      15  12  88 S10       30.07S WCI   2
$$
MNZ006-009>011-018-025>026-161000-
   North Central Minnesota

CITY           SKY/WX    TMP DP  RH WIND       PRES   REMARKS
BAUDETTE       PTCLDY    10   4  76 SW3       30.02R
FLAG ISLAND    CLOUDY     3   1  92 SE6       30.01R WCI  -8
INTL FALLS     CLOUDY    10   6  84 S3        30.04R
WASKISH        CLOUDY    18  16  93 S5        30.04S WCI  11
BIG FORK       CLOUDY    14  12  92 S6        30.06F WCI   5
LONGVILLE      CLOUDY     3   1  92 CALM      30.10S
GRAND RAPIDS   CLOUDY     8   6  92 S5        30.11S FOG     WCI   0
CRANE LAKE     CLOUDY    18  14  86 S3        30.09R
ORR            CLOUDY    16  10  79 CALM      30.04F
COOK           CLOUDY    18  16  93 CALM      30.08F
WALKER         FAIR      13  12  92 CALM      30.09R FOG
$$
MNZ012-019>021-037-161000-
   Northeast Minnesota

CITY           SKY/WX    TMP DP  RH WIND       PRES   REMARKS
DULUTH         CLOUDY    16  14  92 W9        30.10S FOG     WCI   4
ELY            CLOUDY    18  12  79 SW6       30.08R WCI   9
HIBBING        CLOUDY    -3  -5  90 CALM      30.10R
EVELETH        CLOUDY     3  -1  83 CALM      30.11S
DULUTH HARBOR  CLOUDY    18  16  93 CALM      30.17S
TWO HARBORS    CLOUDY    16  10  79 SW5       30.10S WCI   9
SILVER BAY     CLOUDY    18  16  93 SW3       30.09S
GRAND MARAIS     N/A     25  17  72 W6        30.10S WCI  18
G MARAIS ARPRT CLOUDY    18  10  73 SW6       30.03F WCI   9
$$
MNZ029>031-032-039>041-046>048-054>057-064-161000-
   West Central Minnesota

CITY           SKY/WX    TMP DP  RH WIND       PRES   REMARKS
FERGUS FALLS   CLOUDY    18  14  86 SE6       30.16S WCI   9
WHEATON        CLOUDY    14  12  92 CALM      30.12S
MORRIS         CLOUDY    12  10  92 SE6       30.10S FOG     WCI   3
ALEXANDRIA     CLOUDY    17  13  84 S3        30.10S
ELBOW LAKE     FAIR      15  13  92 E8        30.11S FOG     WCI   4
WADENA         FOG        7   3  85 CALM      30.10R VSB 1/4
GLENWOOD       CLOUDY    16  12  86 S10       30.10F WCI   3
APPLETON       CLOUDY    16  12  86 SE3       30.13R
ORTONVILLE     CLOUDY    12  10  92 CALM      30.10S
MADISON        CLOUDY    16  10  79 S6        30.12S WCI   7
WILLMAR        FAIR      12  10  92 SE6       30.15S WCI   3
$$
MNZ033>034-036-042>043-049>051-058-059-161000-
   Central Minnesota

CITY           SKY/WX    TMP DP  RH WIND       PRES   REMARKS
ST CLOUD       CLOUDY    11  11 100 SE6       30.15R FOG     WCI   1
SAUK CENTRE    FAIR      15  13  93 S5        30.11F WCI   7
PAYNESVILLE    CLOUDY    19  15  88 S5        30.14F WCI  12
AITKIN         CLOUDY     3  -2  78 CALM      30.11S
PINE RIVER     CLOUDY     1  -2  85 CALM      30.14R
BRAINERD       CLOUDY     6   4  91 CALM      30.12R FOG
STAPLES        CLOUDY     5   3  92 CALM      30.10R FOG
LONG PRAIRIE   FAIR      12  10  92 CALM      30.11S FOG
LITTLE FALLS   CLOUDY     9   5  85 CALM      30.13S FOG
LITCHFIELD     CLOUDY    18  16  93 CALM      30.16S
BUFFALO        CLOUDY    18  15  86 S3        30.18S
MAPLE LAKE     CLOUDY    13  11  94 CALM      30.17F FOG
HUTCHINSON     CLOUDY    17  15  92 S6        30.17S WCI   8
$$
MNZ037-044-045-052-053-161000-
   East Central Minnesota

CITY           SKY/WX    TMP DP  RH WIND       PRES   REMARKS
PRINCETON      CLOUDY    16  12  86 S5        30.15F WCI   9
MORA           CLOUDY     1   0  92 CALM      30.17S
CAMBRIDGE      CLOUDY    18  12  79 S8        30.15F WCI   7
RUSH CITY        N/A     14  12  92 CALM      30.17F
MOOSE LAKE     CLOUDY     9   5  85 CALM      30.13S FOG
HINCKLEY       FAIR       1   0  92 CALM      30.16F
CLOQUET        CLOUDY    16  14  93 SW5       30.12S FOG     WCI   9
MCGREGOR       CLOUDY    10   9  92 CALM      30.13S
$$
MNZ071>073-080-081-089-090-097-098-161000-
   Southwest Minnesota

CITY           SKY/WX    TMP DP  RH WIND       PRES   REMARKS
MONTEVIDEO     CLOUDY    18  14  86 SW5       30.14F WCI  11
GRANITE FALLS  CLOUDY    19  15  84 SE9       30.15F WCI   8
CANBY          CLOUDY    26  20  77 SW5       30.12F WCI  20
MARSHALL       CLOUDY    21  15  78 S7        30.14R WCI  12
REDWOOD FALLS  CLOUDY    18  14  84 S6        30.16S WCI  10
OLIVIA         CLOUDY    21  18  86 SE5       30.16R WCI  15
PIPESTONE      CLOUDY    25  18  74 S5        30.11S WCI  19
WINDOM         CLOUDY    21  19  93 S3        30.14S
WORTHINGTON    CLOUDY    25  21  85 S7          N/A  WCI  17
JACKSON        CLOUDY    25  19  80 S3        30.15S
TRACY          CLOUDY    27  19  72 S8        30.13S WCI  19
SLAYTON        CLOUDY    20  17  87 S8        30.12F WCI  10
$$
MNZ065>067-074>077-082>085-091>093-161000-
   South Central Minnesota

CITY           SKY/WX    TMP DP  RH WIND       PRES   REMARKS
MANKATO        CLOUDY    19  16  88 SE6       30.19S WCI  11
NEW ULM        CLOUDY    21  18  86 CALM      30.17S
ST JAMES       CLOUDY    19  18  93 CALM      30.18S
FAIRMONT       FLURRIES  26  22  84 SE7       30.17S WCI  18
GLENCOE        CLOUDY    22  20  89 S6        30.17R WCI  15
FARIBAULT      CLOUDY    19  16  86 S3        30.19S
OWATONNA       CLOUDY    23  16  74 SE7       30.18S WCI  15
WASECA         CLOUDY    23  18  80 SE9       30.19S WCI  13
ALBERT LEA     CLOUDY    25  18  74 S9        30.18F WCI  15
$$
MNZ078>079-086>088-094>096-161000-
   Southeast Minnesota

CITY           SKY/WX    TMP DP  RH WIND       PRES   REMARKS
ROCHESTER      CLOUDY    21  17  84 S9        30.19F WCI  11
RED WING       CLOUDY    14  10  85 CALM      30.22S FOG
STANTON        CLOUDY    22  16  76 S6        30.19S WCI  15
DODGE CENTER   CLOUDY    18  14  86 CALM      30.17F
WINONA         CLOUDY    12  10  92 CALM      30.26S
AUSTIN         CLOUDY    25  18  74 S3        30.19F
PRESTON        CLOUDY    21  17  84 S5        30.21S WCI  15
$$
ABBREVIATIONS USED IN REMARKS
   TC - TEMPERATURES IN CELSIUS
  WCI - WIND CHILL INDEX
   HX - HEAT INDEX
  VSB - VISIBILITY
$$



USA.gov is the U.S. government's official web portal to all federal, state and local government web resources and services.